Time,TemperatureF,DewpointF,PressureIn,WindDirection,WindDirectionDegrees,WindSpeedMPH,WindSpeedGustMPH,Humidity,HourlyPrecipIn,Conditions,Clouds,dailyrainin,SoftwareType,DateUTC
2013-08-01 00:01:00,60.6,59.5,30.04,ENE,77,0.0,0.0,96,0.00,,,0.00,Wunderground v.1.15,2013-08-01 04:01:00,
2013-08-01 00:02:00,60.6,59.5,30.04,ENE,76,0.0,0.0,96,0.00,,,0.00,Wunderground v.1.15,2013-08-01 04:02:00,
2013-08-01 00:04:00,60.5,59.4,30.04,ENE,75,0.0,0.0,96,0.00,,,0.00,Wunderground v.1.15,2013-08-01 04:04:00,
2013-08-01 00:05:00,60.5,59.4,30.04,ENE,76,0.0,0.0,96,0.00,,,0.00,Wunderground v.1.15,2013-08-01 04:05:00,
2013-08-01 00:06:00,60.4,59.3,30.04,ENE,75,0.0,0.0,96,0.00,,,0.00,Wunderground v.1.15,2013-08-01 04:06:00,
2013-08-01 00:11:00,60.3,59.2,30.04,ENE,76,0.0,0.0,96,0.00,,,0.00,Wunderground v.1.15,2013-08-01 04:11:00,
2013-08-01 00:17:00,60.3,59.4,30.04,ENE,76,0.0,0.0,97,0.00,,,0.00,Wunderground v.1.15,2013-08-01 04:17:00,
2013-08-01 00:23:00,60.3,59.4,30.04,ENE,76,0.0,0.0,97,0.00,,,0.00,Wunderground v.1.15,2013-08-01 04:23:00,
2013-08-01 00:28:00,60.1,59.2,30.04,ENE,75,0.0,0.0,97,0.00,,,0.00,Wunderground v.1.15,2013-08-01 04:28:00,
2013-08-01 00:34:00,60.0,59.1,30.04,ENE,76,0.0,0.0,97,0.00,,,0.00,Wunderground v.1.15,2013-08-01 04:34:00,
2013-08-01 00:39:00,59.9,59.0,30.04,ENE,76,0.0,0.0,97,0.00,,,0.00,Wunderground v.1.15,2013-08-01 04:39:00,
2013-08-01 00:45:00,59.8,58.9,30.04,ENE,76,0.0,0.0,97,0.00,,,0.00,Wunderground v.1.15,2013-08-01 04:45:00,
2013-08-01 00:51:00,59.7,58.8,30.04,ENE,76,0.0,0.0,97,0.00,,,0.00,Wunderground v.1.15,2013-08-01 04:51:00,
2013-08-01 00:57:00,59.6,58.7,30.04,ENE,75,0.0,0.0,97,0.00,,,0.00,Wunderground v.1.15,2013-08-01 04:57:00,
2013-08-01 01:02:00,59.6,58.7,30.04,ENE,75,0.0,0.0,97,0.00,,,0.00,Wunderground v.1.15,2013-08-01 05:02:00,
2013-08-01 01:08:00,59.5,58.6,30.04,ENE,75,0.0,0.0,97,0.00,,,0.00,Wunderground v.1.15,2013-08-01 05:08:00,
2013-08-01 01:14:00,59.3,58.4,30.04,ENE,76,0.0,0.0,97,0.00,,,0.00,Wunderground v.1.15,2013-08-01 05:14:00,
2013-08-01 01:19:00,59.2,58.3,30.03,ENE,75,0.0,0.0,97,0.00,,,0.00,Wunderground v.1.15,2013-08-01 05:19:00,
2013-08-01 01:25:00,59.0,58.2,30.03,ENE,75,0.0,0.0,97,0.00,,,0.00,Wunderground v.1.15,2013-08-01 05:25:00,
2013-08-01 01:30:00,59.1,58.2,30.03,ENE,75,0.0,0.0,97,0.00,,,0.00,Wunderground v.1.15,2013-08-01 05:30:00,
2013-08-01 01:35:00,59.2,58.3,30.03,ENE,77,0.0,0.0,97,0.00,,,0.00,Wunderground v.1.15,2013-08-01 05:35:00,
2013-08-01 01:40:00,59.4,58.5,30.03,ENE,75,0.0,0.0,97,0.00,,,0.00,Wunderground v.1.15,2013-08-01 05:40:00,
2013-08-01 01:46:00,59.4,58.5,30.03,ENE,75,0.0,0.0,97,0.00,,,0.00,Wunderground v.1.15,2013-08-01 05:46:00,
2013-08-01 01:51:00,59.3,58.4,30.03,ENE,76,0.0,0.0,97,0.00,,,0.00,Wunderground v.1.15,2013-08-01 05:51:00,
2013-08-01 01:57:00,59.2,58.3,30.02,ENE,75,0.0,0.0,97,0.00,,,0.00,Wunderground v.1.15,2013-08-01 05:57:00,
2013-08-01 02:02:00,59.1,58.2,30.02,ENE,75,0.0,0.0,97,0.00,,,0.00,Wunderground v.1.15,2013-08-01 06:02:00,
2013-08-01 02:07:00,59.0,58.2,30.02,ENE,76,0.0,0.0,97,0.00,,,0.00,Wunderground v.1.15,2013-08-01 06:07:00,
2013-08-01 02:13:00,59.0,58.2,30.02,ENE,76,0.0,0.0,97,0.00,,,0.00,Wunderground v.1.15,2013-08-01 06:13:00,
2013-08-01 02:19:00,59.0,58.2,30.02,ENE,76,0.0,0.0,97,0.00,,,0.00,Wunderground v.1.15,2013-08-01 06:19:00,
2013-08-01 02:25:00,59.0,58.2,30.01,ENE,75,0.0,0.0,97,0.00,,,0.00,Wunderground v.1.15,2013-08-01 06:25:00,
2013-08-01 02:31:00,59.0,58.2,30.01,ENE,76,0.0,0.0,97,0.00,,,0.00,Wunderground v.1.15,2013-08-01 06:31:00,
2013-08-01 02:37:00,59.0,58.2,30.01,ENE,75,0.0,0.0,97,0.00,,,0.00,Wunderground v.1.15,2013-08-01 06:37:00,
2013-08-01 02:43:00,58.8,58.0,30.01,ENE,75,0.0,0.0,97,0.00,,,0.00,Wunderground v.1.15,2013-08-01 06:43:00,
2013-08-01 02:49:00,58.5,57.7,30.01,ENE,75,0.0,0.0,97,0.00,,,0.00,Wunderground v.1.15,2013-08-01 06:49:00,
2013-08-01 02:54:00,58.2,57.4,30.01,ENE,75,0.0,0.0,97,0.00,,,0.00,Wunderground v.1.15,2013-08-01 06:54:00,
2013-08-01 03:00:00,58.0,57.2,30.01,ENE,76,0.0,0.0,97,0.00,,,0.00,Wunderground v.1.15,2013-08-01 07:00:00,
2013-08-01 03:06:00,57.6,56.8,30.01,ENE,76,0.0,0.0,97,0.00,,,0.00,Wunderground v.1.15,2013-08-01 07:06:00,
2013-08-01 03:12:00,57.6,56.8,30.01,ENE,75,0.0,0.0,97,0.00,,,0.00,Wunderground v.1.15,2013-08-01 07:12:00,
2013-08-01 03:18:00,57.5,56.7,30.01,ENE,77,0.0,0.0,97,0.00,,,0.00,Wunderground v.1.15,2013-08-01 07:18:00,
2013-08-01 03:24:00,57.5,56.7,30.00,ENE,76,0.0,0.0,97,0.00,,,0.00,Wunderground v.1.15,2013-08-01 07:24:00,
2013-08-01 03:30:00,57.5,56.7,30.00,ENE,75,0.0,0.0,97,0.00,,,0.00,Wunderground v.1.15,2013-08-01 07:30:00,
2013-08-01 03:36:00,57.3,56.5,30.00,ENE,75,0.0,0.0,97,0.00,,,0.00,Wunderground v.1.15,2013-08-01 07:36:00,
2013-08-01 03:42:00,57.6,56.8,30.00,ENE,76,0.0,0.0,97,0.00,,,0.00,Wunderground v.1.15,2013-08-01 07:42:00,
2013-08-01 03:47:00,57.6,56.8,30.00,ENE,76,0.0,0.0,97,0.00,,,0.00,Wunderground v.1.15,2013-08-01 07:47:00,
2013-08-01 03:52:00,57.5,56.7,30.00,ENE,75,0.0,0.0,97,0.00,,,0.00,Wunderground v.1.15,2013-08-01 07:52:00,
2013-08-01 03:57:00,57.5,56.7,30.00,ENE,75,0.0,0.0,97,0.00,,,0.00,Wunderground v.1.15,2013-08-01 07:57:00,
2013-08-01 04:03:00,57.5,56.7,30.00,ENE,76,0.0,0.0,97,0.00,,,0.00,Wunderground v.1.15,2013-08-01 08:03:00,
2013-08-01 04:09:00,57.3,56.5,30.00,ENE,75,0.0,0.0,97,0.00,,,0.00,Wunderground v.1.15,2013-08-01 08:09:00,
2013-08-01 04:14:00,57.2,56.4,30.00,ENE,75,0.0,0.0,97,0.00,,,0.00,Wunderground v.1.15,2013-08-01 08:14:00,
2013-08-01 04:20:00,57.1,56.3,30.00,ENE,75,0.0,0.0,97,0.00,,,0.00,Wunderground v.1.15,2013-08-01 08:20:00,
2013-08-01 04:26:00,57.1,56.3,30.00,ENE,75,0.0,0.0,97,0.00,,,0.00,Wunderground v.1.15,2013-08-01 08:26:00,
2013-08-01 04:32:00,57.3,56.7,30.00,ENE,75,0.0,0.0,98,0.00,,,0.00,Wunderground v.1.15,2013-08-01 08:32:00,
2013-08-01 04:37:00,57.4,56.8,30.00,ENE,75,0.0,0.0,98,0.00,,,0.00,Wunderground v.1.15,2013-08-01 08:37:00,
2013-08-01 04:42:00,57.6,57.0,30.00,ENE,75,0.0,0.0,98,0.00,,,0.00,Wunderground v.1.15,2013-08-01 08:42:00,
2013-08-01 04:47:00,57.6,57.0,30.00,ENE,75,0.0,0.0,98,0.00,,,0.00,Wunderground v.1.15,2013-08-01 08:47:00,
2013-08-01 04:53:00,57.6,57.0,29.99,ENE,75,0.0,0.0,98,0.00,,,0.00,Wunderground v.1.15,2013-08-01 08:53:00,
2013-08-01 04:58:00,57.5,56.9,30.00,ENE,75,0.0,0.0,98,0.00,,,0.00,Wunderground v.1.15,2013-08-01 08:58:00,
2013-08-01 05:03:00,57.5,56.7,30.00,ENE,75,0.0,0.0,97,0.00,,,0.00,Wunderground v.1.15,2013-08-01 09:03:00,
2013-08-01 05:09:00,57.5,56.9,30.00,ENE,75,0.0,0.0,98,0.00,,,0.00,Wunderground v.1.15,2013-08-01 09:09:00,
2013-08-01 05:14:00,57.4,56.8,30.00,ENE,75,0.0,0.0,98,0.00,,,0.00,Wunderground v.1.15,2013-08-01 09:14:00,
2013-08-01 05:20:00,57.3,56.5,29.99,ENE,75,0.0,0.0,97,0.00,,,0.00,Wunderground v.1.15,2013-08-01 09:20:00,
2013-08-01 05:27:00,57.3,56.5,29.99,ENE,75,0.0,0.0,97,0.00,,,0.00,Wunderground v.1.15,2013-08-01 09:27:00,
2013-08-01 05:33:00,57.2,56.4,29.99,ENE,75,0.0,0.0,97,0.00,,,0.00,Wunderground v.1.15,2013-08-01 09:33:00,
2013-08-01 05:40:00,57.2,56.4,29.99,ENE,75,0.0,0.0,97,0.00,,,0.00,Wunderground v.1.15,2013-08-01 09:40:00,
2013-08-01 05:45:00,57.2,56.6,29.99,ENE,75,0.0,0.0,98,0.00,,,0.00,Wunderground v.1.15,2013-08-01 09:45:00,
2013-08-01 05:51:00,57.2,56.6,29.99,ENE,75,0.0,0.0,98,0.00,,,0.00,Wunderground v.1.15,2013-08-01 09:51:00,
2013-08-01 05:57:00,57.3,56.7,29.99,ENE,75,0.0,0.0,98,0.00,,,0.00,Wunderground v.1.15,2013-08-01 09:57:00,
2013-08-01 06:03:00,57.3,56.7,29.99,ENE,75,0.0,0.0,98,0.00,,,0.00,Wunderground v.1.15,2013-08-01 10:03:00,
2013-08-01 06:09:00,57.3,56.7,29.99,ENE,76,0.0,0.0,98,0.00,,,0.00,Wunderground v.1.15,2013-08-01 10:09:00,
2013-08-01 06:14:00,57.3,56.7,29.99,ENE,75,0.0,0.0,98,0.00,,,0.00,Wunderground v.1.15,2013-08-01 10:14:00,
2013-08-01 06:20:00,57.3,56.7,29.99,ENE,75,0.0,0.0,98,0.00,,,0.00,Wunderground v.1.15,2013-08-01 10:20:00,
2013-08-01 06:26:00,57.5,56.9,29.99,ENE,75,0.0,0.0,98,0.00,,,0.00,Wunderground v.1.15,2013-08-01 10:26:00,
2013-08-01 06:32:00,57.7,57.1,29.99,ENE,75,0.0,0.0,98,0.00,,,0.00,Wunderground v.1.15,2013-08-01 10:32:00,
2013-08-01 06:38:00,58.0,57.4,29.99,ENE,77,0.0,0.0,98,0.00,,,0.00,Wunderground v.1.15,2013-08-01 10:38:00,
2013-08-01 06:44:00,58.4,57.8,30.00,ENE,75,0.0,0.0,98,0.00,,,0.00,Wunderground v.1.15,2013-08-01 10:44:00,
2013-08-01 06:49:00,58.9,58.3,30.00,ENE,75,0.0,0.0,98,0.00,,,0.00,Wunderground v.1.15,2013-08-01 10:49:00,
2013-08-01 06:55:00,59.7,59.1,30.00,ENE,76,0.0,0.0,98,0.00,,,0.00,Wunderground v.1.15,2013-08-01 10:55:00,
2013-08-01 07:01:00,59.8,59.2,30.00,ENE,76,0.0,0.0,98,0.00,,,0.00,Wunderground v.1.15,2013-08-01 11:01:00,
2013-08-01 07:07:00,60.0,59.4,30.00,ENE,76,0.0,0.0,98,0.00,,,0.00,Wunderground v.1.15,2013-08-01 11:07:00,
2013-08-01 07:13:00,60.8,60.2,30.00,ENE,76,0.0,0.0,98,0.00,,,0.00,Wunderground v.1.15,2013-08-01 11:13:00,
2013-08-01 07:18:00,61.4,60.8,30.00,ENE,77,0.0,0.0,98,0.00,,,0.00,Wunderground v.1.15,2013-08-01 11:18:00,
2013-08-01 07:23:00,62.1,61.5,30.00,ENE,76,0.0,0.0,98,0.00,,,0.00,Wunderground v.1.15,2013-08-01 11:23:00,
2013-08-01 07:29:00,63.5,62.9,30.00,ENE,76,0.0,0.0,98,0.00,,,0.00,Wunderground v.1.15,2013-08-01 11:29:00,
2013-08-01 07:34:00,64.1,63.5,30.00,ENE,76,0.0,0.0,98,0.00,,,0.00,Wunderground v.1.15,2013-08-01 11:34:00,
2013-08-01 07:39:00,64.2,63.3,30.00,ENE,75,0.0,0.0,97,0.00,,,0.00,Wunderground v.1.15,2013-08-01 11:39:00,
2013-08-01 07:44:00,64.3,63.4,29.99,ENE,75,0.0,0.0,97,0.00,,,0.00,Wunderground v.1.15,2013-08-01 11:44:00,
2013-08-01 07:50:00,64.7,63.8,29.99,ENE,76,0.0,0.0,97,0.00,,,0.00,Wunderground v.1.15,2013-08-01 11:50:00,
2013-08-01 07:55:00,64.7,63.8,29.99,ENE,77,0.0,0.0,97,0.00,,,0.00,Wunderground v.1.15,2013-08-01 11:55:00,
2013-08-01 08:00:00,64.6,63.7,29.99,ENE,77,0.0,0.0,97,0.00,,,0.00,Wunderground v.1.15,2013-08-01 12:00:00,
2013-08-01 08:06:00,64.7,63.8,29.99,ENE,77,0.0,0.0,97,0.00,,,0.00,Wunderground v.1.15,2013-08-01 12:06:00,
2013-08-01 08:12:00,64.9,64.0,29.99,ENE,76,0.0,0.0,97,0.00,,,0.00,Wunderground v.1.15,2013-08-01 12:12:00,
2013-08-01 08:17:00,66.6,65.7,29.99,ENE,77,0.0,0.0,97,0.00,,,0.00,Wunderground v.1.15,2013-08-01 12:17:00,
2013-08-01 08:24:00,68.9,68.0,29.99,ESE,117,0.0,0.0,97,0.00,,,0.00,Wunderground v.1.15,2013-08-01 12:24:00,
2013-08-01 08:30:00,70.5,69.0,29.99,West,262,0.0,0.0,95,0.00,,,0.00,Wunderground v.1.15,2013-08-01 12:30:00,
2013-08-01 08:36:00,71.3,68.5,29.99,SW,236,1.0,3.0,91,0.00,,,0.00,Wunderground v.1.15,2013-08-01 12:36:00,
2013-08-01 08:41:00,71.9,68.5,29.99,SSW,203,2.0,3.0,89,0.00,,,0.00,Wunderground v.1.15,2013-08-01 12:41:00,
2013-08-01 08:47:00,72.4,68.6,29.99,WSW,242,1.0,3.0,88,0.00,,,0.00,Wunderground v.1.15,2013-08-01 12:47:00,
2013-08-01 08:53:00,72.6,68.2,29.99,SW,222,0.0,1.0,86,0.00,,,0.00,Wunderground v.1.15,2013-08-01 12:53:00,
2013-08-01 08:59:00,73.4,69.0,29.99,West,276,0.0,1.0,86,0.00,,,0.00,Wunderground v.1.15,2013-08-01 12:59:00,
2013-08-01 09:04:00,73.6,68.8,29.99,WSW,252,0.0,1.0,85,0.00,,,0.00,Wunderground v.1.15,2013-08-01 13:04:00,
2013-08-01 09:10:00,74.7,69.5,29.98,SW,233,1.0,1.0,84,0.00,,,0.00,Wunderground v.1.15,2013-08-01 13:10:00,
2013-08-01 09:17:00,75.7,69.1,29.98,South,184,2.0,3.0,80,0.00,,,0.00,Wunderground v.1.15,2013-08-01 13:17:00,
2013-08-01 09:23:00,76.0,68.3,29.98,SW,225,3.0,4.0,77,0.00,,,0.00,Wunderground v.1.15,2013-08-01 13:23:00,
2013-08-01 09:28:00,76.1,67.2,29.98,SE,142,3.0,7.0,74,0.00,,,0.00,Wunderground v.1.15,2013-08-01 13:28:00,
2013-08-01 09:33:00,76.5,67.6,29.98,SSW,207,3.0,3.0,74,0.00,,,0.00,Wunderground v.1.15,2013-08-01 13:33:00,
2013-08-01 09:38:00,76.8,67.9,29.97,SSE,160,3.0,5.0,74,0.00,,,0.00,Wunderground v.1.15,2013-08-01 13:38:00,
2013-08-01 09:44:00,77.0,66.5,29.97,South,189,3.0,7.0,70,0.00,,,0.00,Wunderground v.1.15,2013-08-01 13:44:00,
2013-08-01 09:50:00,77.3,67.6,29.97,NNE,24,3.0,3.0,72,0.00,,,0.00,Wunderground v.1.15,2013-08-01 13:50:00,
2013-08-01 09:55:00,77.3,66.3,29.97,SSW,198,3.0,5.0,69,0.00,,,0.00,Wunderground v.1.15,2013-08-01 13:55:00,
2013-08-01 10:01:00,77.5,66.9,29.96,SSW,198,3.0,3.0,70,0.00,,,0.00,Wunderground v.1.15,2013-08-01 14:01:00,
2013-08-01 10:07:00,77.9,68.5,29.97,East,91,3.0,4.0,73,0.00,,,0.00,Wunderground v.1.15,2013-08-01 14:07:00,
2013-08-01 10:12:00,78.2,66.8,29.97,SE,124,3.0,3.0,68,0.00,,,0.00,Wunderground v.1.15,2013-08-01 14:12:00,
2013-08-01 10:18:00,78.5,66.6,29.96,SSW,198,3.0,5.0,67,0.00,,,0.00,Wunderground v.1.15,2013-08-01 14:18:00,
2013-08-01 10:23:00,78.7,65.5,29.96,SW,232,3.0,6.0,64,0.00,,,0.00,Wunderground v.1.15,2013-08-01 14:23:00,
2013-08-01 10:29:00,78.9,67.0,29.96,SSW,193,3.0,6.0,67,0.00,,,0.00,Wunderground v.1.15,2013-08-01 14:29:00,
2013-08-01 10:35:00,79.0,64.9,29.96,SSW,208,4.0,5.0,62,0.00,,,0.00,Wunderground v.1.15,2013-08-01 14:35:00,
2013-08-01 10:41:00,79.3,64.7,29.96,SSW,194,4.0,4.0,61,0.00,,,0.00,Wunderground v.1.15,2013-08-01 14:41:00,
2013-08-01 10:46:00,79.4,64.3,29.96,SSE,167,3.0,7.0,60,0.00,,,0.00,Wunderground v.1.15,2013-08-01 14:46:00,
2013-08-01 10:54:00,78.8,63.3,29.96,WNW,302,4.0,6.0,59,0.00,,,0.00,Wunderground v.1.15,2013-08-01 14:54:00,
2013-08-01 11:01:00,79.4,64.8,29.96,ESE,117,3.0,4.0,61,0.00,,,0.00,Wunderground v.1.15,2013-08-01 15:01:00,
2013-08-01 11:07:00,80.3,66.1,29.96,SW,225,3.0,6.0,62,0.00,,,0.00,Wunderground v.1.15,2013-08-01 15:07:00,
2013-08-01 11:12:00,79.6,63.5,29.96,WSW,239,4.0,4.0,58,0.00,,,0.00,Wunderground v.1.15,2013-08-01 15:12:00,
2013-08-01 11:18:00,79.4,63.3,29.96,SSW,194,4.0,5.0,58,0.00,,,0.00,Wunderground v.1.15,2013-08-01 15:18:00,
2013-08-01 11:24:00,79.9,63.8,29.95,SSE,166,3.0,6.0,58,0.00,,,0.00,Wunderground v.1.15,2013-08-01 15:24:00,
2013-08-01 11:29:00,80.1,64.0,29.95,WSW,239,3.0,6.0,58,0.00,,,0.00,Wunderground v.1.15,2013-08-01 15:29:00,
2013-08-01 12:04:00,80.4,63.8,29.94,WSW,245,4.0,5.0,57,0.00,,,0.00,Wunderground v.1.15,2013-08-01 16:04:00,
2013-08-01 12:10:00,80.7,64.1,29.94,SE,146,4.0,4.0,57,0.00,,,0.00,Wunderground v.1.15,2013-08-01 16:10:00,
2013-08-01 12:15:00,81.3,64.1,29.94,SW,221,4.0,4.0,56,0.00,,,0.00,Wunderground v.1.15,2013-08-01 16:15:00,
2013-08-01 12:21:00,80.9,63.7,29.94,SSE,150,4.0,5.0,56,0.00,,,0.00,Wunderground v.1.15,2013-08-01 16:21:00,
2013-08-01 12:26:00,80.9,64.7,29.94,SSW,195,4.0,7.0,58,0.00,,,0.00,Wunderground v.1.15,2013-08-01 16:26:00,
2013-08-01 12:31:00,81.0,64.3,29.93,SSW,203,4.0,5.0,57,0.00,,,0.00,Wunderground v.1.15,2013-08-01 16:31:00,
2013-08-01 12:37:00,80.8,61.5,29.93,SSE,160,5.0,9.0,52,0.00,,,0.00,Wunderground v.1.15,2013-08-01 16:37:00,
2013-08-01 12:43:00,80.4,63.3,29.93,East,101,4.0,7.0,56,0.00,,,0.00,Wunderground v.1.15,2013-08-01 16:43:00,
2013-08-01 12:48:00,80.4,63.8,29.93,SW,225,4.0,7.0,57,0.00,,,0.00,Wunderground v.1.15,2013-08-01 16:48:00,
2013-08-01 12:54:00,80.3,63.7,29.93,ENE,78,5.0,7.0,57,0.00,,,0.00,Wunderground v.1.15,2013-08-01 16:54:00,
2013-08-01 13:00:00,80.4,64.3,29.93,SSE,155,6.0,6.0,58,0.00,,,0.00,Wunderground v.1.15,2013-08-01 17:00:00,
2013-08-01 13:07:00,80.0,63.9,29.93,SW,218,6.0,10.0,58,0.00,,,0.00,Wunderground v.1.15,2013-08-01 17:07:00,
2013-08-01 13:13:00,79.6,65.0,29.93,SE,134,5.0,8.0,61,0.00,,,0.00,Wunderground v.1.15,2013-08-01 17:13:00,
2013-08-01 13:18:00,79.1,65.4,29.93,SE,141,5.0,10.0,63,0.00,,,0.00,Wunderground v.1.15,2013-08-01 17:18:00,
2013-08-01 13:24:00,79.0,65.8,29.93,WSW,256,5.0,8.0,64,0.00,,,0.00,Wunderground v.1.15,2013-08-01 17:24:00,
2013-08-01 13:29:00,79.0,65.3,29.92,South,190,4.0,8.0,63,0.00,,,0.00,Wunderground v.1.15,2013-08-01 17:29:00,
2013-08-01 13:35:00,79.4,66.6,29.92,ESE,103,4.0,8.0,65,0.00,,,0.00,Wunderground v.1.15,2013-08-01 17:35:00,
2013-08-01 13:40:00,79.4,64.3,29.92,SSW,210,4.0,8.0,60,0.00,,,0.00,Wunderground v.1.15,2013-08-01 17:40:00,
2013-08-01 13:46:00,78.8,66.0,29.92,South,184,4.0,10.0,65,0.00,,,0.00,Wunderground v.1.15,2013-08-01 17:46:00,
2013-08-01 13:52:00,78.9,66.1,29.92,SSE,160,4.0,8.0,65,0.00,,,0.00,Wunderground v.1.15,2013-08-01 17:52:00,
2013-08-01 13:57:00,79.3,66.1,29.92,West,269,4.0,8.0,64,0.00,,,0.00,Wunderground v.1.15,2013-08-01 17:57:00,
2013-08-01 14:02:00,78.7,65.5,29.92,SSW,198,4.0,9.0,64,0.00,,,0.00,Wunderground v.1.15,2013-08-01 18:02:00,
2013-08-01 14:08:00,78.4,65.2,29.91,West,262,5.0,9.0,64,0.00,,,0.00,Wunderground v.1.15,2013-08-01 18:08:00,
2013-08-01 14:14:00,78.4,60.4,29.91,SW,222,4.0,8.0,54,0.00,,,0.00,Wunderground v.1.15,2013-08-01 18:14:00,
2013-08-01 14:20:00,78.3,61.3,29.91,SSW,205,4.0,8.0,56,0.00,,,0.00,Wunderground v.1.15,2013-08-01 18:20:00,
2013-08-01 14:27:00,78.4,61.4,29.91,South,179,3.0,8.0,56,0.00,,,0.00,Wunderground v.1.15,2013-08-01 18:27:00,
2013-08-01 14:34:00,78.1,61.1,29.91,SW,214,4.0,8.0,56,0.00,,,0.00,Wunderground v.1.15,2013-08-01 18:34:00,
2013-08-01 14:40:00,77.1,60.7,29.91,WSW,240,4.0,8.0,57,0.00,,,0.00,Wunderground v.1.15,2013-08-01 18:40:00,
2013-08-01 14:46:00,76.5,61.1,29.92,SW,224,5.0,9.0,59,0.00,,,0.00,Wunderground v.1.15,2013-08-01 18:46:00,
2013-08-01 14:51:00,76.0,61.6,29.92,SSW,211,4.0,8.0,61,0.00,,,0.00,Wunderground v.1.15,2013-08-01 18:51:00,
2013-08-01 14:58:00,75.6,62.6,29.92,SW,225,3.0,8.0,64,0.00,,,0.00,Wunderground v.1.15,2013-08-01 18:58:00,
2013-08-01 15:04:00,75.2,63.9,29.92,SSW,199,2.0,8.0,68,0.00,,,0.00,Wunderground v.1.15,2013-08-01 19:04:00,
2013-08-01 15:10:00,75.1,63.8,29.92,SSW,197,3.0,8.0,68,0.00,,,0.00,Wunderground v.1.15,2013-08-01 19:10:00,
2013-08-01 15:15:00,75.0,62.9,29.92,WSW,245,4.0,8.0,66,0.00,,,0.00,Wunderground v.1.15,2013-08-01 19:15:00,
2013-08-01 15:21:00,74.8,63.5,29.92,SSW,212,5.0,8.0,68,0.00,,,0.00,Wunderground v.1.15,2013-08-01 19:21:00,
2013-08-01 15:26:00,74.6,63.8,29.93,SW,232,4.0,8.0,69,0.00,,,0.00,Wunderground v.1.15,2013-08-01 19:26:00,
2013-08-01 15:32:00,74.1,64.9,29.93,SW,221,4.0,8.0,73,0.00,,,0.00,Wunderground v.1.15,2013-08-01 19:32:00,
2013-08-01 15:37:00,74.1,65.3,29.93,WSW,252,3.0,8.0,74,0.00,,,0.00,Wunderground v.1.15,2013-08-01 19:37:00,
2013-08-01 15:43:00,74.0,65.2,29.93,WSW,242,2.0,8.0,74,0.00,,,0.00,Wunderground v.1.15,2013-08-01 19:43:00,
2013-08-01 15:48:00,73.6,65.6,29.93,SW,229,3.0,8.0,76,0.00,,,0.00,Wunderground v.1.15,2013-08-01 19:48:00,
2013-08-01 15:55:00,72.9,64.1,29.93,SSE,156,4.0,8.0,74,0.00,,,0.00,Wunderground v.1.15,2013-08-01 19:55:00,
2013-08-01 16:01:00,72.5,63.7,29.93,SSW,205,5.0,9.0,74,0.00,,,0.00,Wunderground v.1.15,2013-08-01 20:01:00,
2013-08-01 16:06:00,72.3,63.9,29.93,SSW,197,4.0,9.0,75,0.00,,,0.00,Wunderground v.1.15,2013-08-01 20:06:00,
2013-08-01 16:12:00,72.3,64.7,29.92,South,191,3.0,8.0,77,0.00,,,0.00,Wunderground v.1.15,2013-08-01 20:12:00,
2013-08-01 16:18:00,71.9,65.0,29.92,SSE,166,3.0,8.0,79,0.00,,,0.00,Wunderground v.1.15,2013-08-01 20:18:00,
2013-08-01 16:23:00,71.5,65.7,29.92,SW,225,3.0,8.0,82,0.00,,,0.00,Wunderground v.1.15,2013-08-01 20:23:00,
2013-08-01 16:28:00,71.0,65.6,29.92,South,184,2.0,8.0,83,0.00,,,0.00,Wunderground v.1.15,2013-08-01 20:28:00,
2013-08-01 16:33:00,70.6,65.9,29.92,SW,219,2.0,8.0,85,0.00,,,0.01,Wunderground v.1.15,2013-08-01 20:33:00,
2013-08-01 16:39:00,70.4,66.3,29.92,SSW,201,1.0,8.0,87,0.00,,,0.01,Wunderground v.1.15,2013-08-01 20:39:00,
2013-08-01 16:43:00,70.3,66.6,29.92,SE,140,1.0,8.0,88,0.00,,,0.01,Wunderground v.1.15,2013-08-01 20:43:00,
2013-08-01 16:48:00,70.4,67.0,29.91,SSE,149,0.0,8.0,89,0.00,,,0.01,Wunderground v.1.15,2013-08-01 20:48:00,
2013-08-01 16:54:00,70.5,67.1,29.91,WSW,245,0.0,8.0,89,0.00,,,0.01,Wunderground v.1.15,2013-08-01 20:54:00,
2013-08-01 17:00:00,70.6,67.5,29.91,SW,215,0.0,8.0,90,0.00,,,0.02,Wunderground v.1.15,2013-08-01 21:00:00,
2013-08-01 17:05:00,70.4,67.0,29.91,SW,225,1.0,8.0,89,0.00,,,0.02,Wunderground v.1.15,2013-08-01 21:05:00,
2013-08-01 17:11:00,70.4,67.3,29.91,SW,221,1.0,8.0,90,0.00,,,0.02,Wunderground v.1.15,2013-08-01 21:11:00,
2013-08-01 17:16:00,70.6,67.5,29.91,SW,221,0.0,8.0,90,0.00,,,0.02,Wunderground v.1.15,2013-08-01 21:16:00,
2013-08-01 17:25:00,70.4,67.3,29.91,SW,229,1.0,8.0,90,0.00,,,0.02,Wunderground v.1.15,2013-08-01 21:25:00,
2013-08-01 17:31:00,70.4,67.6,29.91,SW,218,0.0,8.0,91,0.00,,,0.02,Wunderground v.1.15,2013-08-01 21:31:00,
2013-08-01 17:37:00,70.3,67.5,29.90,SW,218,0.0,8.0,91,0.00,,,0.02,Wunderground v.1.15,2013-08-01 21:37:00,
2013-08-01 17:42:00,70.3,67.5,29.90,SW,218,0.0,8.0,91,0.00,,,0.02,Wunderground v.1.15,2013-08-01 21:42:00,
2013-08-01 17:47:00,70.4,68.0,29.90,SW,218,0.0,8.0,92,0.00,,,0.02,Wunderground v.1.15,2013-08-01 21:47:00,
2013-08-01 17:53:00,70.4,67.6,29.90,SW,218,0.0,8.0,91,0.00,,,0.02,Wunderground v.1.15,2013-08-01 21:53:00,
2013-08-01 17:58:00,70.3,67.9,29.90,North,351,0.0,8.0,92,0.00,,,0.02,Wunderground v.1.15,2013-08-01 21:58:00,
2013-08-01 18:04:00,69.8,67.1,29.90,NNW,348,0.0,8.0,91,0.00,,,0.02,Wunderground v.1.15,2013-08-01 22:04:00,
2013-08-01 18:10:00,69.6,66.9,29.90,NNW,348,0.0,8.0,91,0.00,,,0.02,Wunderground v.1.15,2013-08-01 22:10:00,
2013-08-01 18:16:00,69.5,66.8,29.89,North,1,0.0,8.0,91,0.00,,,0.02,Wunderground v.1.15,2013-08-01 22:16:00,
2013-08-01 18:22:00,69.3,66.9,29.89,NE,51,0.0,8.0,92,0.00,,,0.02,Wunderground v.1.15,2013-08-01 22:22:00,
2013-08-01 18:28:00,69.4,67.3,29.89,NE,51,0.0,8.0,93,0.00,,,0.02,Wunderground v.1.15,2013-08-01 22:28:00,
2013-08-01 18:33:00,69.4,67.3,29.89,NE,51,0.0,8.0,93,0.00,,,0.02,Wunderground v.1.15,2013-08-01 22:33:00,
2013-08-01 18:38:00,69.4,67.3,29.89,NE,51,0.0,8.0,93,0.00,,,0.02,Wunderground v.1.15,2013-08-01 22:38:00,
2013-08-01 18:45:00,69.5,67.4,29.90,NE,51,0.0,8.0,93,0.00,,,0.02,Wunderground v.1.15,2013-08-01 22:45:00,
2013-08-01 18:51:00,69.5,67.4,29.90,NE,51,0.0,8.0,93,0.00,,,0.02,Wunderground v.1.15,2013-08-01 22:51:00,
2013-08-01 18:57:00,69.6,67.8,29.90,NE,51,0.0,8.0,94,0.00,,,0.02,Wunderground v.1.15,2013-08-01 22:57:00,
2013-08-01 19:02:00,69.6,67.8,29.89,ENE,75,0.0,8.0,94,0.00,,,0.02,Wunderground v.1.15,2013-08-01 23:02:00,
2013-08-01 19:08:00,69.4,67.6,29.90,WSW,256,0.0,8.0,94,0.00,,,0.02,Wunderground v.1.15,2013-08-01 23:08:00,
2013-08-01 19:13:00,69.5,67.7,29.90,SW,225,0.0,8.0,94,0.00,,,0.02,Wunderground v.1.15,2013-08-01 23:13:00,
2013-08-01 19:19:00,69.4,67.6,29.90,South,191,0.0,8.0,94,0.00,,,0.02,Wunderground v.1.15,2013-08-01 23:19:00,
2013-08-01 19:25:00,69.4,67.3,29.90,SW,215,1.0,8.0,93,0.00,,,0.02,Wunderground v.1.15,2013-08-01 23:25:00,
2013-08-01 19:31:00,69.4,67.3,29.90,South,188,1.0,8.0,93,0.00,,,0.02,Wunderground v.1.15,2013-08-01 23:31:00,
2013-08-01 19:37:00,69.3,67.2,29.90,South,188,0.0,8.0,93,0.00,,,0.02,Wunderground v.1.15,2013-08-01 23:37:00,
2013-08-01 19:42:00,69.2,67.1,29.89,South,189,0.0,8.0,93,0.00,,,0.02,Wunderground v.1.15,2013-08-01 23:42:00,
2013-08-01 19:48:00,68.8,66.7,29.89,SSW,208,0.0,8.0,93,0.00,,,0.02,Wunderground v.1.15,2013-08-01 23:48:00,
2013-08-01 19:54:00,68.6,66.2,29.89,SW,232,0.0,8.0,92,0.00,,,0.02,Wunderground v.1.15,2013-08-01 23:54:00,
2013-08-01 19:59:00,68.5,66.1,29.89,West,260,1.0,8.0,92,0.00,,,0.02,Wunderground v.1.15,2013-08-01 23:59:00,
2013-08-01 20:05:00,68.4,66.0,29.89,SSE,152,1.0,8.0,92,0.00,,,0.02,Wunderground v.1.15,2013-08-02 00:05:00,
2013-08-01 20:12:00,68.2,65.8,29.89,SW,225,1.0,8.0,92,0.00,,,0.02,Wunderground v.1.15,2013-08-02 00:12:00,
2013-08-01 20:18:00,68.0,65.3,29.89,SSW,211,1.0,8.0,91,0.00,,,0.02,Wunderground v.1.15,2013-08-02 00:18:00,
2013-08-01 20:23:00,67.9,64.9,29.89,WSW,242,1.0,8.0,90,0.00,,,0.02,Wunderground v.1.15,2013-08-02 00:23:00,
2013-08-01 20:29:00,67.8,64.4,29.90,South,186,2.0,8.0,89,0.00,,,0.02,Wunderground v.1.15,2013-08-02 00:29:00,
2013-08-01 20:34:00,67.7,64.0,29.90,SSW,208,2.0,8.0,88,0.00,,,0.02,Wunderground v.1.15,2013-08-02 00:34:00,
2013-08-01 20:40:00,67.5,63.5,29.90,SSW,212,2.0,8.0,87,0.00,,,0.02,Wunderground v.1.15,2013-08-02 00:40:00,
2013-08-01 20:45:00,67.3,63.3,29.90,SSW,205,2.0,8.0,87,0.00,,,0.02,Wunderground v.1.15,2013-08-02 00:45:00,
2013-08-01 20:50:00,67.2,63.2,29.90,SW,215,2.0,2.0,87,0.00,,,0.02,Wunderground v.1.15,2013-08-02 00:50:00,
2013-08-01 20:56:00,66.9,63.2,29.90,SSW,210,1.0,8.0,88,0.00,,,0.02,Wunderground v.1.15,2013-08-02 00:56:00,
2013-08-01 21:02:00,66.7,63.0,29.90,SSW,210,1.0,8.0,88,0.00,,,0.02,Wunderground v.1.15,2013-08-02 01:02:00,
2013-08-01 21:08:00,66.5,63.2,29.90,SW,218,1.0,8.0,89,0.00,,,0.02,Wunderground v.1.15,2013-08-02 01:08:00,
2013-08-01 21:13:00,66.2,62.9,29.90,SSW,212,0.0,8.0,89,0.00,,,0.02,Wunderground v.1.15,2013-08-02 01:13:00,
2013-08-01 21:19:00,66.0,63.0,29.90,SW,219,0.0,8.0,90,0.00,,,0.02,Wunderground v.1.15,2013-08-02 01:19:00,
2013-08-01 21:24:00,65.9,62.9,29.90,SW,218,0.0,8.0,90,0.00,,,0.03,Wunderground v.1.15,2013-08-02 01:24:00,
2013-08-01 21:30:00,65.8,63.1,29.90,SW,218,0.0,8.0,91,0.00,,,0.03,Wunderground v.1.15,2013-08-02 01:30:00,
2013-08-01 21:36:00,65.6,63.2,29.90,SW,218,0.0,8.0,92,0.00,,,0.03,Wunderground v.1.15,2013-08-02 01:36:00,
2013-08-01 21:41:00,65.4,63.0,29.90,SW,218,0.0,8.0,92,0.00,,,0.03,Wunderground v.1.15,2013-08-02 01:41:00,
2013-08-01 21:47:00,65.2,63.1,29.89,WSW,252,0.0,8.0,93,0.00,,,0.04,Wunderground v.1.15,2013-08-02 01:47:00,
2013-08-01 21:52:00,65.2,63.4,29.88,ESE,108,1.0,8.0,94,0.00,,,0.04,Wunderground v.1.15,2013-08-02 01:52:00,
2013-08-01 21:58:00,65.1,63.3,29.88,SE,134,1.0,8.0,94,0.05,,,0.05,Wunderground v.1.15,2013-08-02 01:58:00,
2013-08-01 22:04:00,65.2,63.4,29.88,SSW,199,1.0,8.0,94,0.05,,,0.05,Wunderground v.1.15,2013-08-02 02:04:00,
2013-08-01 22:09:00,65.2,63.7,29.88,WSW,257,1.0,8.0,95,0.04,,,0.05,Wunderground v.1.15,2013-08-02 02:09:00,
2013-08-01 22:15:00,65.2,63.7,29.88,WSW,257,0.0,8.0,95,0.00,,,0.06,Wunderground v.1.15,2013-08-02 02:15:00,
2013-08-01 22:21:00,65.1,63.6,29.88,WSW,257,0.0,8.0,95,0.00,,,0.06,Wunderground v.1.15,2013-08-02 02:21:00,
2013-08-01 22:27:00,65.0,63.5,29.88,WSW,257,0.0,8.0,95,0.00,,,0.06,Wunderground v.1.15,2013-08-02 02:27:00,
2013-08-01 22:33:00,64.9,63.4,29.88,WSW,257,0.0,8.0,95,0.00,,,0.06,Wunderground v.1.15,2013-08-02 02:33:00,
2013-08-01 22:39:00,64.9,63.4,29.88,WSW,257,0.0,8.0,95,0.00,,,0.06,Wunderground v.1.15,2013-08-02 02:39:00,
2013-08-01 22:44:00,64.9,63.7,29.88,WSW,257,0.0,8.0,96,0.00,,,0.06,Wunderground v.1.15,2013-08-02 02:44:00,
2013-08-01 22:50:00,65.0,63.8,29.88,WSW,257,0.0,8.0,96,0.00,,,0.06,Wunderground v.1.15,2013-08-02 02:50:00,
2013-08-01 22:55:00,65.0,63.8,29.88,WSW,257,0.0,8.0,96,0.00,,,0.06,Wunderground v.1.15,2013-08-02 02:55:00,
2013-08-01 23:01:00,65.1,63.9,29.87,WSW,257,0.0,8.0,96,0.00,,,0.06,Wunderground v.1.15,2013-08-02 03:01:00,
2013-08-01 23:07:00,65.0,63.8,29.87,SW,221,0.0,8.0,96,0.00,,,0.06,Wunderground v.1.15,2013-08-02 03:07:00,
2013-08-01 23:13:00,65.0,63.8,29.87,ENE,64,0.0,0.0,96,0.00,,,0.06,Wunderground v.1.15,2013-08-02 03:13:00,
2013-08-01 23:19:00,65.0,63.8,29.87,SSE,150,0.0,0.0,96,0.00,,,0.06,Wunderground v.1.15,2013-08-02 03:19:00,
2013-08-01 23:24:00,65.0,63.8,29.86,SSE,149,0.0,0.0,96,0.00,,,0.06,Wunderground v.1.15,2013-08-02 03:24:00,
2013-08-01 23:30:00,64.9,63.7,29.86,SSE,149,0.0,0.0,96,0.00,,,0.06,Wunderground v.1.15,2013-08-02 03:30:00,
2013-08-01 23:36:00,64.9,63.7,29.86,SSE,149,0.0,0.0,96,0.00,,,0.06,Wunderground v.1.15,2013-08-02 03:36:00,
2013-08-01 23:41:00,64.9,63.7,29.86,SSE,149,0.0,0.0,96,0.00,,,0.06,Wunderground v.1.15,2013-08-02 03:41:00,
2013-08-01 23:47:00,64.9,63.7,29.86,SSE,149,0.0,0.0,96,0.00,,,0.06,Wunderground v.1.15,2013-08-02 03:47:00,
2013-08-01 23:52:00,64.9,63.7,29.86,SSE,149,0.0,0.0,96,0.00,,,0.06,Wunderground v.1.15,2013-08-02 03:52:00,